| time (UTC) | temp F | wind direction | speed MPH | gust MPH | rain 1hr in | rain 24hr in | rain mn in | humidity % | barometer mb |
| 20260507071038 | 48 | 7 | 0.0 | 2.0 | 0.00 | 0.40 | 0.06 | 92 | 1005.8 |
| 20260507070538 | 48 | 2 | 1.0 | 2.0 | 0.00 | 0.40 | 0.06 | 92 | 1005.8 |
| 20260507070059 | 49 | 293 | 0.0 | 3.0 | 0.00 | 0.40 | 0.06 | 93 | 1005.9 |
| 20260507065540 | 49 | 302 | 0.0 | 3.0 | 0.00 | 0.40 | 0.06 | 93 | 1005.7 |
| 20260507065037 | 49 | 298 | 0.0 | 1.0 | 0.00 | 0.40 | 0.06 | 93 | 1005.7 |
| 20260507064552 | 49 | 294 | 0.0 | 1.0 | 0.00 | 0.40 | 0.06 | 93 | 1005.7 |
| 20260507064040 | 49 | 302 | 0.0 | 1.0 | 0.00 | 0.40 | 0.06 | 93 | 1005.7 |
| 20260507063539 | 49 | 0 | 0.0 | 1.0 | 0.00 | 0.40 | 0.06 | 93 | 1005.5 |
| 20260507063053 | 49 | 302 | 0.0 | 1.0 | 0.00 | 0.40 | 0.06 | 93 | 1005.5 |
| 20260507062538 | 49 | 0 | 0.0 | 1.0 | 0.00 | 0.40 | 0.06 | 93 | 1005.4 |
| 20260507062038 | 49 | 0 | 0.0 | 1.0 | 0.00 | 0.40 | 0.06 | 93 | 1005.5 |
| 20260507061552 | 49 | 330 | 0.0 | 1.0 | 0.00 | 0.40 | 0.06 | 93 | 1005.5 |
| 20260507061041 | 49 | 0 | 0.0 | 1.0 | 0.00 | 0.40 | 0.06 | 92 | 1005.5 |
| 20260507060538 | 49 | 0 | 0.0 | 1.0 | 0.00 | 0.40 | 0.06 | 92 | 1005.1 |
| 20260507060100 | 49 | 0 | 0.0 | 4.0 | 0.00 | 0.40 | 0.06 | 92 | 1005.3 |
| 20260507055538 | 49 | 12 | 1.0 | 4.0 | 0.00 | 0.40 | 0.06 | 92 | 1005.3 |
| 20260507055039 | 49 | 18 | 0.0 | 3.0 | 0.00 | 0.40 | 0.06 | 92 | 1005.4 |
| 20260507054549 | 50 | 290 | 1.0 | 2.0 | 0.00 | 0.40 | 0.06 | 92 | 1005.3 |
| 20260507054040 | 50 | 20 | 0.0 | 4.0 | 0.00 | 0.40 | 0.06 | 92 | 1005.5 |
| 20260507053538 | 50 | 5 | 1.0 | 4.0 | 0.01 | 0.40 | 0.06 | 92 | 1005.3 |
| 20260507053053 | 50 | 49 | 0.0 | 4.0 | 0.01 | 0.40 | 0.06 | 92 | 1005.0 |
| 20260507052544 | 50 | 27 | 1.0 | 4.0 | 0.01 | 0.40 | 0.06 | 93 | 1005.4 |
| 20260507052038 | 51 | 26 | 1.0 | 4.0 | 0.01 | 0.40 | 0.06 | 93 | 1005.4 |
| 20260507051552 | 51 | 353 | 1.0 | 3.0 | 0.01 | 0.40 | 0.06 | 93 | 1005.4 |
| 20260507051037 | 51 | 0 | 1.0 | 7.0 | 0.03 | 0.40 | 0.06 | 93 | 1005.1 |
| 20260507050537 | 51 | 27 | 1.0 | 8.0 | 0.04 | 0.40 | 0.06 | 93 | 1005.0 |
| 20260507050052 | 51 | 358 | 2.0 | 8.0 | 0.06 | 0.40 | 0.06 | 93 | 1005.0 |
| 20260507045540 | 51 | 64 | 3.0 | 15.0 | 0.06 | 0.40 | 0.06 | 93 | 1005.1 |
| 20260507045037 | 52 | 328 | 2.0 | 15.0 | 0.06 | 0.40 | 0.06 | 93 | 1004.9 |
| 20260507044555 | 53 | 2 | 3.0 | 15.0 | 0.06 | 0.40 | 0.06 | 93 | 1004.8 |
| 20260507044037 | 54 | 37 | 3.0 | 8.0 | 0.06 | 0.40 | 0.06 | 94 | 1004.6 |
| 20260507043538 | 55 | 0 | 0.0 | 3.0 | 0.05 | 0.39 | 0.05 | 96 | 1004.4 |
| 20260507043101 | 55 | 11 | 0.0 | 3.0 | 0.05 | 0.39 | 0.05 | 96 | 1004.5 |
| 20260507042536 | 55 | 0 | 0.0 | 1.0 | 0.05 | 0.39 | 0.05 | 96 | 1004.5 |
| 20260507042044 | 55 | 0 | 0.0 | 1.0 | 0.05 | 0.39 | 0.05 | 96 | 1004.4 |
| 20260507041556 | 55 | 263 | 0.0 | 1.0 | 0.05 | 0.39 | 0.05 | 96 | 1004.4 |
| 20260507041039 | 55 | 0 | 0.0 | 1.0 | 0.03 | 0.37 | 0.03 | 95 | 1004.4 |
| 20260507040539 | 55 | 0 | 0.0 | 1.0 | 0.02 | 0.36 | 0.02 | 95 | 1004.3 |
| 20260507040047 | 54 | 0 | 0.0 | 1.0 | 0.00 | 0.34 | 0.00 | 95 | 1004.5 |
| 20260507035539 | 55 | 249 | 0.0 | 1.0 | 0.00 | 0.34 | 0.34 | 95 | 1004.5 |
| 20260507035040 | 55 | 249 | 0.0 | 1.0 | 0.00 | 0.34 | 0.34 | 96 | 1004.4 |
| 20260507034554 | 54 | 173 | 0.0 | 1.0 | 0.00 | 0.34 | 0.34 | 95 | 1004.3 |
| 20260507034038 | 54 | 173 | 0.0 | 1.0 | 0.00 | 0.34 | 0.34 | 95 | 1004.2 |
| 20260507033539 | 54 | 173 | 0.0 | 0.0 | 0.00 | 0.34 | 0.34 | 95 | 1004.0 |
| 20260507033051 | 54 | 0 | 0.0 | 0.0 | 0.00 | 0.34 | 0.34 | 96 | 1003.9 |
| 20260507032539 | 54 | 173 | 0.0 | 0.0 | 0.00 | 0.34 | 0.34 | 96 | 1003.9 |
| 20260507032036 | 54 | 0 | 0.0 | 1.0 | 0.00 | 0.34 | 0.34 | 95 | 1003.8 |
| 20260507031550 | 54 | 0 | 0.0 | 1.0 | 0.00 | 0.34 | 0.34 | 95 | 1003.8 |
| 20260507031039 | 54 | 170 | 0.0 | 1.0 | 0.00 | 0.34 | 0.34 | 96 | 1003.9 |
| 20260507030539 | 54 | 0 | 0.0 | 0.0 | 0.00 | 0.34 | 0.34 | 95 | 1003.8 |
| 20260507030047 | 53 | 156 | 0.0 | 0.0 | 0.00 | 0.34 | 0.34 | 95 | 1004.0 |
| 20260507025538 | 53 | 0 | 0.0 | 0.0 | 0.00 | 0.34 | 0.34 | 95 | 1004.1 |
| 20260507025042 | 53 | 0 | 0.0 | 0.0 | 0.00 | 0.34 | 0.34 | 95 | 1004.0 |
| 20260507024551 | 53 | 0 | 0.0 | 0.0 | 0.00 | 0.34 | 0.34 | 95 | 1003.9 |
| 20260507024040 | 53 | 0 | 0.0 | 1.0 | 0.01 | 0.34 | 0.34 | 95 | 1004.0 |
| 20260507023539 | 53 | 0 | 0.0 | 1.0 | 0.01 | 0.34 | 0.34 | 95 | 1004.0 |
| 20260507023104 | 53 | 197 | 0.0 | 1.0 | 0.01 | 0.34 | 0.34 | 95 | 1004.2 |
| 20260507022539 | 53 | 197 | 0.0 | 2.0 | 0.01 | 0.34 | 0.34 | 95 | 1004.3 |
| 20260507022040 | 53 | 0 | 0.0 | 2.0 | 0.01 | 0.34 | 0.34 | 95 | 1004.3 |
| 20260507021548 | 53 | 220 | 0.0 | 1.0 | 0.01 | 0.34 | 0.34 | 95 | 1004.3 |
| 20260507021039 | 53 | 221 | 0.0 | 1.0 | 0.01 | 0.34 | 0.34 | 95 | 1004.4 |
| 20260507020539 | 53 | 160 | 0.0 | 1.0 | 0.02 | 0.34 | 0.34 | 95 | 1004.4 |
| 20260507020059 | 53 | 200 | 0.0 | 2.0 | 0.02 | 0.34 | 0.34 | 95 | 1004.4 |
| 20260507015538 | 53 | 199 | 0.0 | 2.0 | 0.02 | 0.34 | 0.34 | 95 | 1004.5 |
| 20260507015040 | 53 | 208 | 0.0 | 2.0 | 0.02 | 0.34 | 0.34 | 95 | 1004.5 |
| 20260507014547 | 53 | 191 | 1.0 | 2.0 | 0.02 | 0.34 | 0.34 | 95 | 1004.5 |
| 20260507014039 | 53 | 199 | 0.0 | 2.0 | 0.01 | 0.33 | 0.33 | 95 | 1004.6 |
| 20260507013538 | 53 | 201 | 1.0 | 2.0 | 0.01 | 0.33 | 0.33 | 95 | 1004.6 |
| 20260507013054 | 53 | 206 | 1.0 | 2.0 | 0.01 | 0.33 | 0.33 | 95 | 1004.7 |
| 20260507012540 | 53 | 173 | 1.0 | 2.0 | 0.01 | 0.33 | 0.33 | 95 | 1004.7 |
| 20260507012038 | 53 | 212 | 1.0 | 2.0 | 0.02 | 0.33 | 0.33 | 95 | 1004.7 |
| 20260507011551 | 53 | 218 | 1.0 | 2.0 | 0.02 | 0.33 | 0.33 | 95 | 1004.7 |
| 20260507011038 | 53 | 217 | 1.0 | 2.0 | 0.02 | 0.33 | 0.33 | 95 | 1004.7 |
| 20260507010537 | 53 | 210 | 1.0 | 2.0 | 0.01 | 0.32 | 0.32 | 95 | 1004.8 |
| 20260507010047 | 53 | 172 | 0.0 | 2.0 | 0.01 | 0.32 | 0.32 | 94 | 1004.9 |
| 20260507005540 | 53 | 174 | 1.0 | 2.0 | 0.01 | 0.32 | 0.32 | 94 | 1004.9 |
| 20260507005039 | 53 | 169 | 1.0 | 2.0 | 0.01 | 0.32 | 0.32 | 94 | 1004.9 |
| 20260507004550 | 53 | 206 | 1.0 | 2.0 | 0.01 | 0.32 | 0.32 | 94 | 1004.8 |
| 20260507004038 | 53 | 175 | 1.0 | 3.0 | 0.01 | 0.32 | 0.32 | 94 | 1004.8 |
| 20260507003538 | 53 | 217 | 1.0 | 4.0 | 0.01 | 0.32 | 0.32 | 94 | 1004.9 |
| 20260507003056 | 53 | 177 | 1.0 | 4.0 | 0.01 | 0.32 | 0.32 | 94 | 1004.9 |
| 20260507002540 | 53 | 211 | 2.0 | 4.0 | 0.00 | 0.31 | 0.31 | 94 | 1004.9 |
| 20260507002038 | 53 | 192 | 1.0 | 3.0 | 0.00 | 0.31 | 0.31 | 94 | 1004.9 |
| 20260507001608 | 53 | 208 | 1.0 | 3.0 | 0.00 | 0.31 | 0.31 | 94 | 1004.9 |
| 20260507001037 | 53 | 214 | 1.0 | 3.0 | 0.00 | 0.31 | 0.31 | 94 | 1004.9 |
| 20260507000541 | 53 | 219 | 1.0 | 3.0 | 0.00 | 0.31 | 0.31 | 94 | 1004.9 |
| 20260507000047 | 53 | 207 | 1.0 | 3.0 | 0.00 | 0.31 | 0.31 | 94 | 1004.9 |
| 20260506235538 | 54 | 167 | 1.0 | 3.0 | 0.00 | 0.31 | 0.31 | 94 | 1005.0 |
| 20260506235037 | 54 | 156 | 1.0 | 3.0 | 0.00 | 0.31 | 0.31 | 94 | 1004.9 |
| 20260506234552 | 53 | 216 | 2.0 | 4.0 | 0.00 | 0.31 | 0.31 | 94 | 1004.8 |
| 20260506234038 | 54 | 220 | 1.0 | 4.0 | 0.00 | 0.31 | 0.31 | 94 | 1004.9 |
| 20260506233538 | 54 | 168 | 2.0 | 4.0 | 0.00 | 0.31 | 0.31 | 94 | 1005.0 |
| 20260506233054 | 54 | 164 | 1.0 | 4.0 | 0.00 | 0.31 | 0.31 | 94 | 1004.9 |
| 20260506232537 | 54 | 139 | 2.0 | 4.0 | 0.00 | 0.31 | 0.31 | 94 | 1005.0 |
| 20260506232039 | 54 | 198 | 1.0 | 4.0 | 0.00 | 0.31 | 0.31 | 94 | 1005.1 |
| 20260506231545 | 54 | 216 | 2.0 | 4.0 | 0.00 | 0.31 | 0.31 | 94 | 1005.1 |
| 20260506231037 | 54 | 177 | 2.0 | 3.0 | 0.00 | 0.31 | 0.31 | 94 | 1005.1 |
| 20260506230538 | 54 | 167 | 2.0 | 4.0 | 0.00 | 0.31 | 0.31 | 94 | 1005.0 |
| 20260506230136 | 54 | 188 | 2.0 | 4.0 | 0.01 | 0.31 | 0.31 | 94 | 1005.0 |
| 20260506225538 | 55 | 185 | 2.0 | 4.0 | 0.01 | 0.31 | 0.31 | 94 | 1005.0 |
| 20260506225038 | 55 | 250 | 1.0 | 4.0 | 0.01 | 0.31 | 0.31 | 94 | 1005.2 |
| 20260506224551 | 55 | 207 | 1.0 | 4.0 | 0.01 | 0.31 | 0.31 | 94 | 1005.2 |
| 20260506224037 | 55 | 215 | 1.0 | 4.0 | 0.01 | 0.31 | 0.31 | 94 | 1005.2 |
| 20260506223539 | 55 | 211 | 1.0 | 4.0 | 0.01 | 0.31 | 0.31 | 94 | 1005.2 |
| 20260506223051 | 55 | 218 | 1.0 | 3.0 | 0.01 | 0.31 | 0.31 | 94 | 1005.3 |
| 20260506222539 | 55 | 198 | 2.0 | 3.0 | 0.02 | 0.31 | 0.31 | 94 | 1005.3 |
| 20260506222039 | 55 | 212 | 2.0 | 3.0 | 0.02 | 0.31 | 0.31 | 94 | 1005.4 |
| 20260506221605 | 55 | 161 | 1.0 | 3.0 | 0.03 | 0.31 | 0.31 | 94 | 1005.5 |
| 20260506221037 | 55 | 187 | 1.0 | 3.0 | 0.03 | 0.31 | 0.31 | 94 | 1005.4 |
| 20260506220538 | 55 | 218 | 1.0 | 4.0 | 0.05 | 0.31 | 0.31 | 94 | 1005.5 |
| 20260506220048 | 55 | 197 | 2.0 | 4.0 | 0.04 | 0.30 | 0.30 | 94 | 1005.6 |
| 20260506215542 | 55 | 176 | 2.0 | 4.0 | 0.08 | 0.30 | 0.30 | 94 | 1005.7 |
| 20260506215038 | 55 | 220 | 2.0 | 3.0 | 0.10 | 0.30 | 0.30 | 93 | 1005.5 |
| 20260506214554 | 55 | 185 | 2.0 | 3.0 | 0.12 | 0.30 | 0.30 | 93 | 1005.7 |
| 20260506214038 | 55 | 174 | 2.0 | 4.0 | 0.12 | 0.30 | 0.30 | 93 | 1005.6 |
| 20260506213540 | 55 | 211 | 2.0 | 5.0 | 0.13 | 0.30 | 0.30 | 93 | 1005.6 |
| 20260506213051 | 55 | 179 | 2.0 | 6.0 | 0.13 | 0.30 | 0.30 | 93 | 1005.7 |
| 20260506212538 | 55 | 179 | 2.0 | 6.0 | 0.12 | 0.29 | 0.29 | 93 | 1005.8 |
| 20260506212039 | 55 | 187 | 2.0 | 4.0 | 0.13 | 0.29 | 0.29 | 93 | 1005.8 |
| 20260506211547 | 55 | 210 | 2.0 | 5.0 | 0.12 | 0.28 | 0.28 | 93 | 1005.8 |
| 20260506211039 | 55 | 213 | 1.0 | 5.0 | 0.12 | 0.28 | 0.28 | 93 | 1005.9 |
| 20260506210539 | 55 | 191 | 2.0 | 4.0 | 0.10 | 0.26 | 0.26 | 93 | 1006.1 |
| 20260506210057 | 55 | 219 | 2.0 | 4.0 | 0.09 | 0.25 | 0.25 | 93 | 1006.0 |
| 20260506205537 | 55 | 203 | 1.0 | 4.0 | 0.07 | 0.22 | 0.22 | 92 | 1006.2 |
| 20260506205037 | 55 | 169 | 1.0 | 3.0 | 0.05 | 0.20 | 0.20 | 92 | 1006.1 |
| 20260506204555 | 55 | 198 | 1.0 | 3.0 | 0.03 | 0.18 | 0.18 | 92 | 1006.1 |
| 20260506204038 | 56 | 193 | 2.0 | 3.0 | 0.04 | 0.18 | 0.18 | 92 | 1006.1 |
| 20260506203538 | 56 | 187 | 1.0 | 3.0 | 0.05 | 0.17 | 0.17 | 92 | 1006.1 |
| 20260506203102 | 56 | 161 | 1.0 | 3.0 | 0.06 | 0.17 | 0.17 | 92 | 1006.0 |
| 20260506202538 | 56 | 205 | 1.0 | 2.0 | 0.07 | 0.17 | 0.17 | 92 | 1006.1 |
| 20260506202038 | 56 | 153 | 1.0 | 4.0 | 0.07 | 0.16 | 0.16 | 92 | 1005.8 |
| 20260506201554 | 56 | 179 | 2.0 | 4.0 | 0.09 | 0.16 | 0.16 | 92 | 1006.0 |
| 20260506201037 | 56 | 207 | 2.0 | 4.0 | 0.09 | 0.16 | 0.16 | 92 | 1006.2 |
| 20260506200544 | 57 | 193 | 2.0 | 3.0 | 0.10 | 0.16 | 0.16 | 92 | 1006.4 |
| 20260506200054 | 57 | 155 | 1.0 | 2.0 | 0.11 | 0.16 | 0.16 | 92 | 1006.1 |
| 20260506195538 | 57 | 170 | 0.0 | 2.0 | 0.12 | 0.15 | 0.15 | 92 | 1006.0 |
| 20260506195038 | 57 | 179 | 1.0 | 3.0 | 0.13 | 0.15 | 0.15 | 92 | 1006.2 |
| 20260506194555 | 57 | 146 | 1.0 | 3.0 | 0.14 | 0.15 | 0.15 | 92 | 1006.4 |
| 20260506194038 | 57 | 186 | 1.0 | 2.0 | 0.13 | 0.14 | 0.14 | 91 | 1006.7 |
| 20260506193537 | 57 | 190 | 1.0 | 3.0 | 0.12 | 0.12 | 0.12 | 91 | 1006.8 |
| 20260506193054 | 57 | 213 | 1.0 | 3.0 | 0.11 | 0.11 | 0.11 | 91 | 1006.8 |
| 20260506192538 | 57 | 221 | 1.0 | 3.0 | 0.10 | 0.10 | 0.10 | 91 | 1006.7 |
| 20260506192038 | 57 | 205 | 0.0 | 3.0 | 0.08 | 0.08 | 0.08 | 91 | 1006.6 |
| 20260506191553 | 57 | 159 | 2.0 | 3.0 | 0.07 | 0.07 | 0.07 | 91 | 1006.7 |
| 20260506191039 | 57 | 174 | 1.0 | 3.0 | 0.07 | 0.07 | 0.07 | 90 | 1006.8 |
| 20260506190539 | 57 | 252 | 2.0 | 4.0 | 0.06 | 0.06 | 0.06 | 90 | 1006.9 |
| 20260506190053 | 57 | 213 | 1.0 | 4.0 | 0.05 | 0.05 | 0.05 | 89 | 1006.8 |
| 20260506185542 | 56 | 219 | 1.0 | 3.0 | 0.03 | 0.03 | 0.03 | 89 | 1006.9 |
| 20260506185038 | 57 | 180 | 1.0 | 2.0 | 0.02 | 0.02 | 0.02 | 88 | 1006.9 |
| 20260506184554 | 57 | 170 | 1.0 | 2.0 | 0.01 | 0.01 | 0.01 | 87 | 1006.7 |
| 20260506184040 | 57 | 198 | 1.0 | 4.0 | 0.00 | 0.00 | 0.00 | 86 | 1006.6 |
| 20260506183540 | 57 | 154 | 1.0 | 4.0 | 0.00 | 0.00 | 0.00 | 84 | 1006.6 |
| 20260506183100 | 57 | 167 | 2.0 | 4.0 | 0.00 | 0.00 | 0.00 | 83 | 1006.7 |
| 20260506182537 | 58 | 197 | 2.0 | 5.0 | 0.00 | 0.00 | 0.00 | 81 | 1006.6 |
| 20260506182042 | 58 | 174 | 2.0 | 5.0 | 0.00 | 0.00 | 0.00 | 80 | 1006.6 |
| 20260506181604 | 59 | 201 | 2.0 | 4.0 | 0.00 | 0.00 | 0.00 | 78 | 1006.6 |
| 20260506181039 | 59 | 229 | 1.0 | 4.0 | 0.00 | 0.00 | 0.00 | 78 | 1006.6 |
| 20260506180543 | 60 | 204 | 2.0 | 5.0 | 0.00 | 0.00 | 0.00 | 77 | 1006.7 |
| 20260506180050 | 60 | 193 | 2.0 | 5.0 | 0.00 | 0.00 | 0.00 | 76 | 1006.5 |
| 20260506175538 | 60 | 210 | 3.0 | 6.0 | 0.00 | 0.00 | 0.00 | 76 | 1006.7 |
| 20260506175042 | 61 | 181 | 2.0 | 6.0 | 0.00 | 0.00 | 0.00 | 76 | 1006.6 |
| 20260506174551 | 61 | 203 | 2.0 | 6.0 | 0.00 | 0.00 | 0.00 | 75 | 1006.6 |
| 20260506174038 | 61 | 203 | 3.0 | 5.0 | 0.00 | 0.00 | 0.00 | 76 | 1006.6 |
| 20260506173539 | 61 | 201 | 2.0 | 5.0 | 0.00 | 0.00 | 0.00 | 76 | 1006.8 |
| 20260506173051 | 61 | 156 | 2.0 | 4.0 | 0.00 | 0.00 | 0.00 | 75 | 1006.7 |
| 20260506172538 | 62 | 210 | 1.0 | 4.0 | 0.00 | 0.00 | 0.00 | 76 | 1007.0 |
| 20260506172038 | 62 | 200 | 2.0 | 4.0 | 0.00 | 0.00 | 0.00 | 75 | 1006.9 |
| 20260506171550 | 62 | 145 | 2.0 | 4.0 | 0.00 | 0.00 | 0.00 | 76 | 1007.0 |
| 20260506171038 | 62 | 170 | 1.0 | 3.0 | 0.00 | 0.00 | 0.00 | 76 | 1007.1 |
| 20260506170541 | 62 | 167 | 1.0 | 3.0 | 0.00 | 0.00 | 0.00 | 76 | 1007.3 |
| 20260506165541 | 62 | 166 | 1.0 | 3.0 | 0.00 | 0.00 | 0.00 | 75 | 1007.6 |
| 20260506165039 | 62 | 160 | 1.0 | 3.0 | 0.00 | 0.00 | 0.00 | 75 | 1007.6 |
| 20260506164555 | 63 | 145 | 1.0 | 3.0 | 0.00 | 0.00 | 0.00 | 75 | 1007.5 |
| 20260506164038 | 63 | 151 | 1.0 | 2.0 | 0.00 | 0.00 | 0.00 | 75 | 1007.6 |
| 20260506163538 | 62 | 149 | 0.0 | 2.0 | 0.00 | 0.00 | 0.00 | 76 | 1007.8 |
| 20260506163104 | 62 | 172 | 1.0 | 3.0 | 0.00 | 0.00 | 0.00 | 75 | 1008.0 |
| 20260506162541 | 63 | 158 | 1.0 | 3.0 | 0.00 | 0.00 | 0.00 | 75 | 1008.0 |
| 20260506162041 | 62 | 171 | 1.0 | 3.0 | 0.00 | 0.00 | 0.00 | 75 | 1008.1 |
| 20260506161547 | 62 | 163 | 1.0 | 3.0 | 0.00 | 0.00 | 0.00 | 76 | 1008.3 |
| 20260506161038 | 62 | 168 | 1.0 | 2.0 | 0.00 | 0.00 | 0.00 | 76 | 1008.5 |
| 20260506160540 | 62 | 207 | 0.0 | 2.0 | 0.00 | 0.00 | 0.00 | 76 | 1008.5 |
| 20260506160059 | 62 | 214 | 1.0 | 3.0 | 0.00 | 0.00 | 0.00 | 77 | 1008.6 |
| 20260506155538 | 61 | 164 | 1.0 | 3.0 | 0.00 | 0.00 | 0.00 | 76 | 1008.7 |
| 20260506155038 | 61 | 177 | 1.0 | 3.0 | 0.00 | 0.00 | 0.00 | 77 | 1008.8 |
| 20260506154552 | 61 | 171 | 1.0 | 3.0 | 0.00 | 0.00 | 0.00 | 77 | 1008.8 |
| 20260506154038 | 61 | 195 | 0.0 | 3.0 | 0.00 | 0.00 | 0.00 | 77 | 1008.8 |
| 20260506153544 | 61 | 220 | 1.0 | 3.0 | 0.00 | 0.00 | 0.00 | 77 | 1008.7 |
| 20260506153045 | 61 | 153 | 1.0 | 3.0 | 0.00 | 0.00 | 0.00 | 77 | 1008.7 |
| 20260506152538 | 61 | 220 | 1.0 | 2.0 | 0.00 | 0.00 | 0.00 | 77 | 1008.6 |
| 20260506152038 | 61 | 198 | 0.0 | 2.0 | 0.00 | 0.00 | 0.00 | 77 | 1008.8 |
| 20260506151557 | 61 | 176 | 1.0 | 2.0 | 0.00 | 0.00 | 0.00 | 77 | 1008.9 |
| 20260506151038 | 61 | 167 | 0.0 | 2.0 | 0.00 | 0.00 | 0.00 | 78 | 1008.7 |
| 20260506150544 | 61 | 171 | 1.0 | 3.0 | 0.00 | 0.00 | 0.00 | 78 | 1008.6 |
| 20260506150100 | 61 | 158 | 1.0 | 3.0 | 0.00 | 0.00 | 0.00 | 78 | 1008.7 |
| 20260506145539 | 61 | 166 | 1.0 | 3.0 | 0.00 | 0.00 | 0.00 | 78 | 1008.8 |
| 20260506145039 | 61 | 217 | 1.0 | 3.0 | 0.00 | 0.00 | 0.00 | 78 | 1008.7 |
| 20260506144553 | 61 | 181 | 1.0 | 3.0 | 0.00 | 0.00 | 0.00 | 77 | 1008.7 |
| 20260506144036 | 61 | 158 | 1.0 | 3.0 | 0.00 | 0.00 | 0.00 | 78 | 1008.5 |
| 20260506143536 | 61 | 145 | 1.0 | 4.0 | 0.00 | 0.00 | 0.00 | 77 | 1008.6 |
| 20260506143050 | 61 | 163 | 0.0 | 4.0 | 0.00 | 0.00 | 0.00 | 77 | 1008.5 |
| 20260506142540 | 61 | 188 | 1.0 | 4.0 | 0.00 | 0.00 | 0.00 | 77 | 1008.5 |
| 20260506142040 | 61 | 148 | 1.0 | 2.0 | 0.00 | 0.00 | 0.00 | 77 | 1008.5 |
| 20260506141548 | 61 | 226 | 0.0 | 1.0 | 0.00 | 0.00 | 0.00 | 77 | 1008.5 |
| 20260506141039 | 61 | 150 | 0.0 | 2.0 | 0.00 | 0.00 | 0.00 | 77 | 1008.7 |
| 20260506140538 | 61 | 152 | 0.0 | 2.0 | 0.00 | 0.00 | 0.00 | 77 | 1008.8 |
| 20260506140049 | 60 | 135 | 0.0 | 2.0 | 0.00 | 0.00 | 0.00 | 78 | 1009.0 |
| 20260506135540 | 60 | 113 | 0.0 | 2.0 | 0.00 | 0.00 | 0.00 | 77 | 1009.0 |
| 20260506135038 | 60 | 131 | 1.0 | 2.0 | 0.00 | 0.00 | 0.00 | 77 | 1009.0 |
| 20260506134546 | 60 | 184 | 1.0 | 3.0 | 0.00 | 0.00 | 0.00 | 78 | 1009.0 |
| 20260506134042 | 61 | 158 | 1.0 | 3.0 | 0.00 | 0.00 | 0.00 | 77 | 1008.9 |
| 20260506133539 | 60 | 162 | 0.0 | 1.0 | 0.00 | 0.00 | 0.00 | 78 | 1008.9 |
| 20260506133059 | 60 | 152 | 0.0 | 1.0 | 0.00 | 0.00 | 0.00 | 78 | 1009.0 |
| 20260506132539 | 60 | 174 | 0.0 | 1.0 | 0.00 | 0.00 | 0.00 | 78 | 1009.0 |
| 20260506132036 | 60 | 146 | 0.0 | 1.0 | 0.00 | 0.00 | 0.00 | 77 | 1008.8 |
| 20260506131553 | 60 | 196 | 0.0 | 1.0 | 0.00 | 0.00 | 0.00 | 78 | 1008.9 |
| 20260506131039 | 60 | 146 | 0.0 | 1.0 | 0.00 | 0.00 | 0.00 | 78 | 1008.8 |
| 20260506130537 | 60 | 226 | 0.0 | 1.0 | 0.00 | 0.00 | 0.00 | 78 | 1008.9 |
| 20260506130047 | 60 | 202 | 0.0 | 2.0 | 0.00 | 0.00 | 0.00 | 78 | 1008.9 |
| 20260506125537 | 60 | 212 | 1.0 | 2.0 | 0.00 | 0.00 | 0.00 | 78 | 1008.9 |
| 20260506125036 | 60 | 181 | 1.0 | 2.0 | 0.00 | 0.00 | 0.00 | 77 | 1008.9 |
| 20260506124552 | 60 | 146 | 0.0 | 2.0 | 0.00 | 0.00 | 0.00 | 78 | 1008.9 |
| 20260506124036 | 60 | 149 | 0.0 | 1.0 | 0.00 | 0.00 | 0.00 | 79 | 1008.9 |
| 20260506123542 | 59 | 179 | 0.0 | 1.0 | 0.00 | 0.00 | 0.00 | 80 | 1008.9 |
| 20260506123049 | 59 | 0 | 0.0 | 2.0 | 0.00 | 0.00 | 0.00 | 80 | 1009.0 |
| 20260506122540 | 58 | 148 | 0.0 | 2.0 | 0.00 | 0.00 | 0.00 | 80 | 1009.0 |
| 20260506122040 | 58 | 150 | 1.0 | 2.0 | 0.00 | 0.00 | 0.00 | 80 | 1009.0 |
| 20260506121554 | 58 | 0 | 0.0 | 1.0 | 0.00 | 0.00 | 0.00 | 81 | 1009.1 |
| 20260506121040 | 57 | 188 | 0.0 | 1.0 | 0.00 | 0.00 | 0.00 | 82 | 1009.1 |
| 20260506120540 | 57 | 0 | 0.0 | 1.0 | 0.00 | 0.00 | 0.00 | 83 | 1009.1 |
| 20260506120059 | 57 | 176 | 0.0 | 1.0 | 0.00 | 0.00 | 0.00 | 82 | 1009.2 |
| 20260506115539 | 57 | 0 | 0.0 | 1.0 | 0.00 | 0.00 | 0.00 | 82 | 1009.1 |
| 20260506115040 | 56 | 168 | 0.0 | 1.0 | 0.00 | 0.00 | 0.00 | 83 | 1009.2 |
| 20260506114551 | 56 | 160 | 0.0 | 1.0 | 0.00 | 0.00 | 0.00 | 83 | 1009.2 |
| 20260506114041 | 56 | 0 | 0.0 | 1.0 | 0.00 | 0.00 | 0.00 | 83 | 1009.4 |
| 20260506113538 | 55 | 0 | 0.0 | 1.0 | 0.00 | 0.00 | 0.00 | 83 | 1009.3 |
| 20260506113050 | 55 | 0 | 0.0 | 1.0 | 0.00 | 0.00 | 0.00 | 84 | 1009.5 |
| 20260506112540 | 55 | 210 | 0.0 | 0.0 | 0.00 | 0.00 | 0.00 | 84 | 1009.5 |
| 20260506112038 | 55 | 0 | 0.0 | 0.0 | 0.00 | 0.00 | 0.00 | 85 | 1009.3 |
| 20260506111551 | 54 | 0 | 0.0 | 0.0 | 0.00 | 0.00 | 0.00 | 85 | 1009.3 |
| 20260506111038 | 54 | 0 | 0.0 | 0.0 | 0.00 | 0.00 | 0.00 | 85 | 1009.4 |
| 20260506110538 | 54 | 0 | 0.0 | 0.0 | 0.00 | 0.00 | 0.00 | 86 | 1009.7 |
| 20260506110100 | 53 | 0 | 0.0 | 0.0 | 0.00 | 0.00 | 0.00 | 86 | 1009.5 |
| 20260506105538 | 53 | 0 | 0.0 | 0.0 | 0.00 | 0.00 | 0.00 | 86 | 1009.5 |
| 20260506105042 | 53 | 0 | 0.0 | 0.0 | 0.00 | 0.00 | 0.00 | 86 | 1009.5 |
| 20260506104558 | 53 | 0 | 0.0 | 0.0 | 0.00 | 0.00 | 0.00 | 87 | 1009.6 |
| 20260506104039 | 52 | 0 | 0.0 | 0.0 | 0.00 | 0.00 | 0.00 | 87 | 1009.4 |
| 20260506103537 | 52 | 0 | 0.0 | 0.0 | 0.00 | 0.00 | 0.00 | 87 | 1009.5 |
| 20260506103052 | 52 | 0 | 0.0 | 0.0 | 0.00 | 0.00 | 0.00 | 87 | 1009.3 |
| 20260506102539 | 52 | 0 | 0.0 | 0.0 | 0.00 | 0.00 | 0.00 | 87 | 1009.0 |
| 20260506102042 | 52 | 0 | 0.0 | 0.0 | 0.00 | 0.00 | 0.00 | 87 | 1009.0 |
| 20260506101554 | 52 | 198 | 0.0 | 0.0 | 0.00 | 0.00 | 0.00 | 87 | 1009.2 |
| 20260506101038 | 52 | 0 | 0.0 | 0.0 | 0.00 | 0.00 | 0.00 | 87 | 1009.3 |
| 20260506100538 | 52 | 0 | 0.0 | 1.0 | 0.00 | 0.00 | 0.00 | 87 | 1009.1 |
| 20260506095538 | 51 | 207 | 0.0 | 1.0 | 0.00 | 0.00 | 0.00 | 88 | 1009.0 |
| 20260506095039 | 51 | 0 | 0.0 | 0.0 | 0.00 | 0.00 | 0.00 | 87 | 1009.2 |
| 20260506094556 | 51 | 0 | 0.0 | 1.0 | 0.00 | 0.00 | 0.00 | 87 | 1009.3 |
| 20260506094040 | 51 | 0 | 0.0 | 1.0 | 0.00 | 0.00 | 0.00 | 87 | 1008.9 |
| 20260506093538 | 52 | 0 | 0.0 | 1.0 | 0.00 | 0.00 | 0.00 | 86 | 1008.9 |
| 20260506093047 | 52 | 0 | 0.0 | 1.0 | 0.00 | 0.00 | 0.00 | 86 | 1008.9 |
| 20260506092539 | 52 | 0 | 0.0 | 1.0 | 0.00 | 0.00 | 0.00 | 86 | 1009.1 |
| 20260506092038 | 52 | 207 | 0.0 | 1.0 | 0.00 | 0.00 | 0.00 | 85 | 1009.0 |
| 20260506091549 | 52 | 207 | 0.0 | 1.0 | 0.00 | 0.00 | 0.00 | 85 | 1009.1 |
| 20260506091039 | 52 | 203 | 0.0 | 1.0 | 0.00 | 0.00 | 0.00 | 85 | 1009.0 |
| 20260506090540 | 52 | 210 | 0.0 | 1.0 | 0.00 | 0.00 | 0.00 | 85 | 1009.1 |
| 20260506090051 | 52 | 195 | 0.0 | 2.0 | 0.00 | 0.00 | 0.00 | 85 | 1009.0 |
| 20260506085539 | 52 | 195 | 0.0 | 2.0 | 0.00 | 0.00 | 0.00 | 85 | 1009.0 |
| 20260506085040 | 52 | 195 | 0.0 | 2.0 | 0.00 | 0.00 | 0.00 | 84 | 1009.0 |
| 20260506084617 | 52 | 167 | 0.0 | 1.0 | 0.00 | 0.00 | 0.00 | 84 | 1008.9 |
| 20260506084040 | 53 | 0 | 0.0 | 1.0 | 0.00 | 0.00 | 0.00 | 84 | 1008.9 |
| 20260506083540 | 53 | 167 | 0.0 | 1.0 | 0.00 | 0.00 | 0.00 | 84 | 1008.7 |
| 20260506083051 | 53 | 197 | 0.0 | 1.0 | 0.00 | 0.00 | 0.00 | 83 | 1008.8 |
| 20260506082541 | 53 | 169 | 0.0 | 1.0 | 0.00 | 0.00 | 0.00 | 83 | 1008.9 |
| 20260506082040 | 53 | 169 | 0.0 | 1.0 | 0.00 | 0.00 | 0.00 | 83 | 1008.8 |
| 20260506081556 | 53 | 169 | 0.0 | 1.0 | 0.00 | 0.00 | 0.00 | 83 | 1008.8 |
| 20260506081040 | 53 | 169 | 0.0 | 1.0 | 0.00 | 0.00 | 0.00 | 83 | 1008.8 |
| 20260506080540 | 53 | 205 | 0.0 | 1.0 | 0.00 | 0.00 | 0.00 | 83 | 1008.9 |
| 20260506073053 | 54 | 0 | 0.0 | 0.0 | 0.00 | 0.00 | 0.00 | 82 | 1008.9 |
| 20260506072540 | 54 | 0 | 0.0 | 0.0 | 0.00 | 0.00 | 0.00 | 82 | 1008.7 |
| 20260506072037 | 54 | 0 | 0.0 | 0.0 | 0.00 | 0.00 | 0.00 | 82 | 1008.7 |
| 20260506071554 | 54 | 0 | 0.0 | 1.0 | 0.00 | 0.00 | 0.00 | 81 | 1008.7 |